This is the latest recevied weather packets stored in our database for station/object DB0WUN-13. If no packets are shown the sender has not sent any weather packets the latest 1 day(s).
| Time | Temp. | Humidity | Pressure | Rain* | Wind** | Luminosity | Snow |
|---|---|---|---|---|---|---|---|
| 1778007230 | 11.67° C | 89% | 1007.3 hPa | 2.54 mm | 1.79 m/s, 295° | 0 W/m² | - |
| 1778007167 | 11.67° C | 89% | 1007.3 hPa | 2.79 mm | 1.79 m/s, 311° | 0 W/m² | - |
| 1778007106 | 11.67° C | 89% | 1007.4 hPa | 3.05 mm | 1.79 m/s, 292° | 0 W/m² | - |
| 1778007045 | 11.67° C | 89% | 1007.5 hPa | 3.3 mm | 1.79 m/s, 290° | 0 W/m² | - |
| 1778006989 | 11.67° C | 89% | 1007.4 hPa | 3.3 mm | 1.79 m/s, 324° | 0 W/m² | - |
| 1778006928 | 11.67° C | 89% | 1007.4 hPa | 3.81 mm | 1.79 m/s, 324° | 0 W/m² | - |
| 1778006869 | 11.67° C | 89% | 1007.6 hPa | 4.32 mm | 1.79 m/s, 319° | 0 W/m² | - |
| 1778006829 | 11.67° C | 89% | 1007.6 hPa | 4.57 mm | 1.79 m/s, 290° | 0 W/m² | - |
| 1778006797 | 11.67° C | 89% | 1007.6 hPa | 4.83 mm | 1.34 m/s, 302° | 0 W/m² | - |
| 1778006743 | 11.67° C | 89% | 1007.6 hPa | 5.08 mm | 1.34 m/s, 297° | 0 W/m² | - |
| 1778006697 | 11.67° C | 89% | 1007.8 hPa | 5.59 mm | 0.89 m/s, 295° | 0 W/m² | - |
| 1778006661 | 11.67° C | 89% | 1007.8 hPa | 6.1 mm | 0.89 m/s, 276° | 0 W/m² | - |
| 1778006615 | 11.67° C | 89% | 1007.8 hPa | 6.6 mm | 0.45 m/s, 289° | 0 W/m² | - |
| 1778006450 | 11.67° C | 89% | 1007.8 hPa | 7.11 mm | 0.45 m/s, 310° | 0 W/m² | - |
| 1778006397 | 11.67° C | 89% | 1007.8 hPa | 7.62 mm | 0.45 m/s, 317° | 0 W/m² | - |
| 1778006353 | 11.67° C | 90% | 1007.8 hPa | 7.87 mm | 0 m/s | 0 W/m² | - |
| 1778006319 | 11.67° C | 89% | 1007.8 hPa | 7.87 mm | 0 m/s | 0 W/m² | - |
| 1778006276 | 11.67° C | 89% | 1007.9 hPa | 8.13 mm | 0 m/s | 0 W/m² | - |
| 1778006246 | 11.67° C | 89% | 1007.8 hPa | 8.64 mm | 0 m/s | 0 W/m² | - |
| 1778006201 | 11.67° C | 89% | 1007.9 hPa | 8.64 mm | 0 m/s | 0 W/m² | - |
| 1778006014 | 11.67° C | 89% | 1007.9 hPa | 8.64 mm | 0 m/s | 0 W/m² | - |
| 1778005953 | 11.67° C | 89% | 1007.9 hPa | 8.64 mm | 0 m/s | 0 W/m² | - |
| 1778005889 | 11.67° C | 89% | 1008 hPa | 8.64 mm | 0 m/s | 0 W/m² | - |
| 1778005828 | 11.67° C | 89% | 1008 hPa | 8.64 mm | 0 m/s | 0 W/m² | - |
| 1778005780 | 11.67° C | 89% | 1008.1 hPa | 8.64 mm | 0 m/s | 0 W/m² | - |
* Rain latest hour (hover to see other rain measurements)
** Current wind speed in m/s (hover to see current wind gust speed)